Location: Fearn
(57.7667°N, 3.9667°W)
Time: 14:02:21
(UTC+00:00)

Daily predictions for brighter satellites

Satellite Brightness Start Highest point End
(mag) Time Altitude Azimuth Time Altitude Azimuth Time Altitude Azimuth
Cosmos 1709 Rocket 4.4 22:13:57 10° SSW 22:20:16 71° WNW 22:26:41 10° N
Cosmos 2237 Rocket 3.3 22:16:13 10° SSE 22:20:51 26° ESE 22:25:31 10° NE
Cosmos 2333 4.2 22:17:07 10° SSW 22:22:45 74° ESE 22:28:30 10° NE
Cosmos 2219 Rocket 2.3 22:17:26 10° SSW 22:22:54 57° ESE 22:28:25 10° NE
Cosmos 1538 Rocket 4.2 22:19:00 10° SSW 22:24:17 62° ESE 22:29:33 10° NE
Cosmos 1315 Rocket 3.8 22:20:46 10° NNW 22:24:41 44° W 22:28:36 10° S
Cosmos 2360 Rocket 2.6 22:19:18 10° SW 22:24:57 73° NW 22:30:40 10° NE
NOSS 3-3 (A) 4.4 22:19:31 10° SSW 22:25:12 45° SE 22:31:38 10° ENE
NOSS 3-3 (C) 4.4 22:19:38 10° SSW 22:25:19 45° SE 22:31:45 10° ENE
Thor Agena Rocket 4.5 22:23:42 10° NNE 22:28:18 32° E 22:32:48 10° SSE
Meteor 2-2 Rocket 4.5 22:23:32 10° NNW 22:29:25 77° WSW 22:35:09 10° S
Cosmos 2333 Rocket 2.3 22:27:20 10° SSW 22:32:59 68° ESE 22:38:43 10° NE
Cosmos 2221 2.9 22:29:56 10° NNW 22:34:18 64° W 22:38:36 10° S
Cosmos 2184 Rocket 4.1 22:28:42 10° S 22:34:54 71° E 22:41:13 10° NNE
RESURS DK-1 4.5 22:32:17 10° NNW 22:35:45 25° NNE 22:39:13 10° E
Iridium 2 4.1 22:34:44 10° N 22:38:31 54° E 22:42:16 10° SSE
Cosmos 1371 Rocket 4.1 22:33:20 10° NNW 22:38:38 87° ENE 22:43:56 10° SSE
ATLAS 2AS CENTAUR R/B 3.0 22:31:04 10° NW 22:38:46 68° SW 22:45:49 10° SE
BREEZE-M DEB (TANK) 3.3 22:34:41 10° WSW 22:38:50 24° SSW 22:41:10 10° SE
Cosmos 1818 3.7 22:33:39 10° SW 22:39:07 87° NW 22:44:38 10° NE
GEOS 3 Rocket 3.7 22:35:39 10° NE 22:41:05 79° SE 22:46:30 10° SW
Cosmos 773 Rocket 4.2 22:35:46 10° SSW 22:41:05 80° WNW 22:46:25 10° NNE
EO 1 Del DPAF 4.4 22:38:14 10° NE 22:41:33 28° E 22:44:51 10° SSE
SL-16 R/B 3.9 22:39:06 10° WSW 22:44:25 39° NW 22:49:45 10° NE
Aureole 2 Rocket 2.4 22:43:14 10° NNW 22:45:58 53° ENE 22:48:48 10° SE
Cosmos 1892 2.9 22:42:25 10° S 22:46:08 57° E 22:49:54 10° NNE
Cosmos 1606 3.7 22:44:41 10° N 22:48:22 38° ENE 22:52:01 10° SE
Cosmos 2278 Rocket 2.8 22:43:50 10° NW 22:49:16 47° WSW 22:54:39 10° S
USA 215 3.5 22:44:01 10° ENE 22:50:21 48° SSE 22:56:40 10° SW
Cosmos 2297 3.9 22:45:03 10° NW 22:50:51 79° NE 22:56:36 10° SE
Cosmos 1420 Rocket 4.3 22:49:31 10° NNW 22:54:47 65° NE 23:00:03 10° SE
ATLAS 5 CENTAUR R/B 1.8 22:52:08 10° WSW 22:56:32 85° NW 23:01:40 10° ENE
Cosmos 1943 Rocket 2.8 22:51:48 10° NW 22:57:25 55° NE 23:02:59 10° ESE
Cosmos 158 Rocket 4.4 22:53:22 10° S 22:57:54 40° ESE 23:02:31 10° NE
Lacrosse 5 rocket 1.2 22:53:49 10° W 22:57:59 77° S 23:01:54 10° ESE
Cosmos 2056 Rocket 3.7 22:57:08 10° NNW 23:02:33 76° WSW 23:07:58 10° SSE
Spot 4 3.9 22:59:11 10° SSE 23:03:59 78° WSW 23:08:48 10° NNW
SL-16 R/B 3.6 23:00:56 10° SSE 23:05:16 23° ESE 23:09:39 10° NE
Cosmos 2058 2.9 23:01:44 10° S 23:05:54 86° E 23:10:04 10° NNE
Cosmos 1408 2.7 23:03:25 10° S 23:06:57 59° E 23:10:29 10° NNE
Nadezhda 3 Rocket 4.3 23:00:57 10° NNW 23:07:19 70° W 23:13:36 10° S
Cosmos 2154 Rocket 4.0 23:08:33 10° S 23:14:46 86° E 23:21:02 10° NNE
Cosmos 332 Rocket 4.1 23:11:27 10° NNW 23:16:14 63° NE 23:21:00 10° SE
Cosmos 1076 Rocket 3.6 23:13:25 10° SSW 23:17:43 84° W 23:22:02 10° NNE
Cosmos 2341 Rocket 4.3 23:11:49 10° S 23:17:54 59° E 23:24:00 10° NNE
In-Cosmos 22 Rocket 4.2 23:12:46 10° SSW 23:18:05 81° WNW 23:23:28 10° NNE
Cosmos 1680 Rocket 3.6 23:16:46 10° SSW 23:22:02 65° ESE 23:27:20 10° NNE
Cosmos 2074 Rocket 4.4 23:15:58 10° SSW 23:22:09 63° WNW 23:28:20 10° N
Cosmos 405 4.4 23:22:15 10° N 23:25:29 31° ENE 23:28:41 10° SE
USA 267 4.2 23:21:24 10° SSE 23:26:56 30° SW 23:32:37 10° WNW
Cosmos 2151 3.1 23:23:52 11° S 23:27:56 63° E 23:32:10 10° NNE
Helios 1A 3.4 23:24:57 10° SE 23:29:02 56° ENE 23:33:09 10° N
Cosmos 1452 Rocket 3.6 23:24:20 10° NNW 23:29:38 79° ENE 23:34:55 10° SE
CZ-4C R/B 3.0 23:23:43 10° WNW 23:30:18 79° NNE 23:38:11 10° ESE
COSMOS 2455 2.9 23:25:20 10° NW 23:31:25 87° SW 23:37:28 10° SE
Cosmos 2322 Rocket 4.4 23:27:07 10° W 23:32:02 30° NNW 23:36:59 10° NE
Cosmos 1933 3.4 23:30:30 10° N 23:34:33 79° ENE 23:38:13 12° SSE
Cosmos 1151 Rocket 3.0 23:31:42 10° NNW 23:36:05 86° E 23:40:03 12° SSE
Cosmos 1825 2.1 23:32:56 11° S 23:36:34 83° E 23:40:24 10° NNE
SL-8 Rocket 4.2 23:30:59 11° S 23:36:50 60° E 23:42:54 10° NNE
EO 1 Delta rocket 4.2 23:32:14 10° N 23:37:06 86° WNW 23:42:54 10° SSW
Cosmos 1340 3.8 23:34:23 12° SSE 23:37:25 31° E 23:40:48 10° NNE
ALOS 2 2.7 23:35:27 12° S 23:39:30 70° WSW 23:43:55 10° NNW
Cosmos 923 Rocket 4.1 23:34:21 10° SSW 23:39:37 83° WNW 23:44:59 10° NNE
Cosmos 1408 Rocket 4.4 23:35:56 11° SSE 23:39:43 38° E 23:43:49 10° NNE
SL-16 R/B 4.4 23:36:50 10° E 23:41:52 27° NE 23:46:58 10° N
Cosmos 1727 Rocket 4.2 23:35:40 10° N 23:41:53 68° ENE 23:48:04 10° SSE
Cosmos 2369 Rocket 2.4 23:36:26 10° NW 23:42:04 71° NE 23:47:40 10° SE
APEX 2.4 23:39:18 10° NW 23:42:05 66° SW 23:44:22 13° SSE
GP-B 3.1 23:40:17 10° N 23:44:46 82° E 23:48:50 12° S
Cosmos 371 Rocket 3.4 23:41:06 10° NNW 23:45:57 67° WSW 23:50:25 12° SSE
Cosmos 1980 3.7 23:40:25 10° SSW 23:46:05 83° SE 23:51:47 10° NE
IRIDIUM 103 4.5 23:41:42 12° S 23:46:34 68° E 23:51:46 10° N
Cosmos 44 4.1 23:43:37 12° S 23:46:54 28° ESE 23:50:44 10° ENE
SL-4 R/B 0.2 23:48:59 18° SSE 23:50:21 78° WSW 23:52:27 10° NNW
COSMOS 2428 3.4 23:45:49 10° WSW 23:51:25 56° NW 23:57:03 10° NE
Helios 1B rocket 4.4 23:49:00 10° NE 23:51:54 18° E 23:54:49 10° SE
Terra 4.3 23:53:23 10° WSW 23:55:22 12° W 23:57:22 10° WNW
Cosmos 1782 3.1 23:51:32 10° N 23:55:29 61° ENE 23:59:10 12° SSE
